Location: Cerbedi�res
(48.2182°N, 1.4849°W)
Time: 08:42:56
(UTC+00:00)

USA 306 - Pass Details

Date: 03 March 2021
Orbit: 564 x 577 km, 54.0° (Epoch: 13 April)

Event Time Altitude Azimuth Distance (km) Brightness Sun altitude
Rises 18:17:52 0° 265° (W) 2,773 9.6 -4.9°
Reaches altitude 10° 18:20:12 10° 272° (W) 1,874 7.4 -5.3°
Maximum altitude 18:24:18 45° 345° (NNW) 781 3.7 -5.9°
Drops below altitude 10° 18:28:24 10° 60° (ENE) 1,870 5.0 -6.6°
Enters shadow 18:29:14 - 63° (ENE) 2,186 5.3 -6.8°
